CW8248 Weather Reports


Display with metric or nautical units.
time (UTC)temp
F
wind
direction
speed
MPH
gust
MPH
rain 1hr
in
rain 24hr
in
rain mn
in
humidity
%
barometer
mb
20260903214046 67 229 12.0 20.0 0.00 0.19 0.01 55 1009.7
20260903213548 67 241 14.0 23.0 0.00 0.19 0.01 54 1009.6
20260903213046 68 310 11.0 23.0 0.00 0.19 0.01 53 1009.7
20260903212546 68 275 9.0 16.0 0.00 0.19 0.01 54 1009.7
20260903212046 65 267 5.0 11.0 0.00 0.19 0.01 58 1009.7
20260903211551 67 244 6.0 11.0 0.00 0.19 0.01 53 1009.8
20260903211046 70 235 7.0 10.0 0.00 0.19 0.01 48 1009.7
20260903210545 71 235 6.0 9.0 0.00 0.19 0.01 47 1009.7
20260903210046 71 233 5.0 9.0 0.00 0.21 0.01 49 1009.7
20260903205543 70 242 6.0 9.0 0.00 0.21 0.01 51 1009.8
20260903205043 71 240 6.0 8.0 0.00 0.21 0.01 51 1009.8
20260903204543 70 236 6.0 9.0 0.00 0.21 0.01 54 1009.7
20260903204043 67 240 4.0 7.0 0.00 0.21 0.01 58 1009.7
20260903203542 67 240 4.0 7.0 0.00 0.21 0.01 56 1009.9
20260903203042 67 239 5.0 7.0 0.00 0.21 0.01 54 1009.9
20260903202546 68 236 4.0 7.0 0.00 0.21 0.01 56 1009.9
20260903202042 68 237 4.0 7.0 0.00 0.21 0.01 52 1010.0
20260903201541 71 239 5.0 9.0 0.00 0.21 0.01 52 1010.1
20260903201042 70 231 5.0 8.0 0.00 0.21 0.01 53 1010.1
20260903200540 70 246 5.0 8.0 0.00 0.21 0.01 56 1010.2
20260903200041 69 232 4.0 8.0 0.00 0.22 0.01 54 1010.3
20260903195542 71 232 5.0 8.0 0.00 0.22 0.01 49 1010.3
20260903195039 69 204 4.0 7.0 0.00 0.22 0.01 58 1010.4
20260903194536 65 232 4.0 7.0 0.00 0.22 0.01 60 1010.5
20260903194039 66 232 4.0 7.0 0.00 0.22 0.01 57 1010.6
20260903193535 65 233 4.0 7.0 0.00 0.22 0.01 61 1010.6
20260903193035 64 227 3.0 6.0 0.00 0.22 0.01 60 1010.7
20260903192534 64 225 3.0 5.0 0.00 0.22 0.01 60 1010.8
20260903192037 63 223 3.0 5.0 0.00 0.22 0.01 69 1010.8
20260903191547 63 223 2.0 5.0 0.00 0.22 0.01 66 1010.9
20260903191035 64 223 2.0 5.0 0.00 0.22 0.01 67 1011.0
20260903190534 65 223 3.0 5.0 0.00 0.22 0.01 71 1011.0
20260903190034 63 208 1.0 5.0 0.00 0.22 0.01 72 1011.1
20260903185533 65 204 3.0 6.0 0.00 0.22 0.01 62 1011.2
20260903185033 65 191 4.0 6.0 0.00 0.22 0.01 68 1011.3
20260903184541 66 209 4.0 6.0 0.00 0.22 0.01 68 1011.2
20260903184033 65 181 4.0 6.0 0.00 0.22 0.01 63 1011.2
20260903183530 66 162 3.0 7.0 0.00 0.22 0.01 71 1011.3
20260903183030 65 186 5.0 8.0 0.00 0.22 0.01 73 1011.3
20260903182531 65 181 4.0 7.0 0.00 0.22 0.01 75 1011.2
20260903182027 64 186 3.0 6.0 0.00 0.22 0.01 75 1011.3
20260903181526 62 168 1.0 5.0 0.00 0.22 0.01 76 1011.3
20260903181024 60 85 1.0 4.0 0.00 0.22 0.01 76 1011.3
20260903180523 59 333 0.0 4.0 0.00 0.22 0.01 79 1011.4
20260903180029 58 76 0.0 5.0 0.00 0.22 0.01 78 1011.4
20260903175521 57 11 1.0 5.0 0.00 0.22 0.01 78 1011.4
20260903175020 58 349 1.0 5.0 0.00 0.22 0.01 83 1011.4
20260903174518 57 63 0.0 5.0 0.00 0.22 0.01 84 1011.5
20260903174018 56 44 0.0 2.0 0.00 0.22 0.01 84 1011.5
20260903173516 55 44 1.0 2.0 0.00 0.22 0.01 83 1011.6
20260903173019 55 64 0.0 4.0 0.00 0.22 0.01 84 1011.6
20260903172518 54 64 0.0 5.0 0.00 0.22 0.01 85 1011.6
20260903172013 54 66 2.0 5.0 0.00 0.22 0.01 85 1011.6
20260903171511 54 73 0.0 6.0 0.00 0.22 0.01 85 1011.7
20260903171011 54 65 3.0 6.0 0.00 0.22 0.01 86 1011.7
20260903170510 53 53 0.0 4.0 0.00 0.22 0.01 86 1011.8
20260903170010 53 49 2.0 4.0 0.00 0.22 0.01 86 1011.8
20260903165507 53 18 0.0 2.0 0.00 0.22 0.01 86 1011.8
20260903165005 53 18 1.0 3.0 0.00 0.22 0.01 86 1012.0
20260903164506 53 18 0.0 3.0 0.00 0.22 0.01 86 1011.8
20260903164006 52 344 0.0 2.0 0.00 0.22 0.01 85 1011.8
20260903163507 52 59 0.0 2.0 0.00 0.22 0.01 86 1011.5
20260903163006 52 60 0.0 3.0 0.00 0.22 0.01 86 1011.7
20260903162507 52 60 0.0 3.0 0.00 0.22 0.01 86 1011.5
20260903162004 52 58 0.0 3.0 0.00 0.22 0.01 86 1011.5
20260903161504 52 58 0.0 4.0 0.00 0.22 0.01 86 1011.6
20260903161003 52 67 1.0 4.0 0.00 0.22 0.01 86 1011.7
20260903160504 52 51 0.0 1.0 0.00 0.22 0.01 86 1011.7
20260903160003 52 52 0.0 4.0 0.00 0.22 0.01 86 1011.7
20260903155505 52 348 0.0 3.0 0.00 0.22 0.01 86 1011.7
20260903155002 52 348 1.0 3.0 0.00 0.22 0.01 86 1011.8
20260903154502 52 348 0.0 1.0 0.00 0.22 0.01 86 1011.7
20260903154002 52 348 0.0 1.0 0.00 0.22 0.01 87 1011.7
20260903153501 52 348 0.0 2.0 0.00 0.22 0.01 86 1011.7
20260903153100 51 348 0.0 3.0 0.00 0.22 0.01 86 1011.7
20260903152600 51 348 0.0 3.0 0.00 0.22 0.01 86 1011.8
20260903152103 51 231 0.0 1.0 0.00 0.22 0.01 86 1011.8
20260903151600 51 231 0.0 1.0 0.00 0.22 0.01 86 1011.8
20260903151100 51 231 0.0 2.0 0.00 0.22 0.01 86 1011.9
20260903150559 51 231 0.0 2.0 0.00 0.22 0.01 86 1011.9
20260903150059 51 231 0.0 2.0 0.00 0.22 0.01 86 1011.8
20260903145559 51 231 0.0 2.0 0.00 0.22 0.01 86 1011.8
20260903145057 51 231 0.0 0.0 0.00 0.22 0.01 86 1011.7
20260903144557 51 231 0.0 0.0 0.00 0.22 0.01 87 1011.7
20260903144057 51 231 0.0 0.0 0.00 0.22 0.01 87 1011.6
20260903143556 51 231 0.0 0.0 0.00 0.22 0.01 87 1011.7
20260903143108 51 231 0.0 1.0 0.00 0.22 0.01 87 1011.6
20260903142555 51 231 0.0 1.0 0.00 0.22 0.01 87 1011.6
20260903142057 51 231 0.0 1.0 0.00 0.22 0.01 87 1011.5
20260903141553 51 231 0.0 0.0 0.00 0.22 0.01 86 1011.5
20260903141053 51 231 0.0 0.0 0.00 0.22 0.01 87 1011.5
20260903140552 50 231 0.0 1.0 0.00 0.22 0.01 86 1011.5
20260903140052 51 231 0.0 1.0 0.00 0.22 0.01 86 1011.4
20260903135550 51 231 0.0 1.0 0.00 0.22 0.01 86 1011.4
20260903135050 51 70 0.0 2.0 0.00 0.22 0.01 86 1011.3
20260903134548 50 70 0.0 2.0 0.00 0.22 0.01 86 1011.3
20260903134048 51 70 0.0 2.0 0.00 0.22 0.01 86 1011.3
20260903133548 51 70 0.0 3.0 0.00 0.22 0.01 86 1011.2
20260903133049 51 70 0.0 3.0 0.00 0.22 0.01 86 1011.1
20260903132546 51 70 1.0 4.0 0.00 0.22 0.01 86 1011.1
20260903132046 50 75 1.0 3.0 0.00 0.22 0.01 86 1011.1
20260903131604 50 75 0.0 3.0 0.00 0.22 0.01 86 1011.1
20260903131046 50 75 0.0 3.0 0.00 0.22 0.01 86 1011.0
20260903130550 51 150 0.0 2.0 0.00 0.22 0.01 86 1010.9
20260903130049 51 150 0.0 0.0 0.00 0.22 0.01 86 1010.9
20260903125546 51 150 0.0 1.0 0.00 0.22 0.01 86 1010.8
20260903125046 51 150 0.0 0.0 0.00 0.22 0.01 86 1010.9
20260903124546 51 150 0.0 1.0 0.00 0.22 0.01 86 1011.0
20260903124048 50 150 0.0 2.0 0.00 0.22 0.01 86 1010.9
20260903123546 50 150 0.0 2.0 0.00 0.22 0.01 86 1011.0
20260903123048 50 150 0.0 2.0 0.00 0.22 0.01 86 1011.0
20260903122543 50 150 0.0 2.0 0.00 0.22 0.01 86 1011.0
20260903122043 51 150 0.0 2.0 0.00 0.22 0.01 86 1011.0
20260903121543 51 150 0.0 2.0 0.00 0.22 0.01 86 1011.0
20260903121043 51 150 0.0 4.0 0.00 0.22 0.01 87 1011.0
20260903120545 51 152 1.0 3.0 0.00 0.22 0.01 86 1011.1
20260903120042 51 66 0.0 5.0 0.00 0.22 0.01 86 1011.0
20260903115541 51 64 3.0 5.0 0.00 0.22 0.01 86 1010.9
20260903115044 51 63 1.0 4.0 0.00 0.22 0.01 86 1011.0
20260903114540 51 62 0.0 3.0 0.00 0.22 0.01 86 1010.9
20260903114039 51 9 0.0 2.0 0.00 0.22 0.01 86 1010.9
20260903113539 51 9 0.0 2.0 0.00 0.22 0.01 86 1010.8
20260903113042 51 9 0.0 2.0 0.00 0.22 0.01 86 1010.9
20260903112542 51 51 0.0 2.0 0.00 0.22 0.01 86 1010.9
20260903112037 51 51 0.0 0.0 0.00 0.22 0.01 86 1010.8
20260903111536 51 51 0.0 1.0 0.00 0.22 0.01 86 1010.6
20260903111038 51 51 0.0 1.0 0.00 0.22 0.01 86 1010.6
20260903110535 51 51 0.0 1.0 0.00 0.22 0.01 86 1010.6
20260903110036 51 51 0.0 2.0 0.00 0.22 0.01 86 1010.7
20260903105534 51 51 0.0 2.0 0.01 0.22 0.01 86 1010.6
20260903105034 52 51 0.0 1.0 0.01 0.22 0.01 86 1010.6
20260903104533 52 51 0.0 1.0 0.01 0.22 0.01 86 1010.6
20260903104032 52 51 0.0 1.0 0.01 0.22 0.01 86 1010.5
20260903103532 52 51 0.0 1.0 0.01 0.22 0.01 86 1010.4
20260903103032 52 51 0.0 1.0 0.01 0.22 0.01 86 1010.4
20260903102535 52 51 0.0 1.0 0.01 0.22 0.01 86 1010.3
20260903102032 52 51 0.0 1.0 0.01 0.22 0.01 86 1010.4
20260903101531 52 51 0.0 1.0 0.01 0.22 0.01 86 1010.4
20260903101031 52 51 0.0 1.0 0.01 0.22 0.01 86 1010.4
20260903100531 52 51 0.0 1.0 0.01 0.22 0.01 86 1010.4
20260903100031 52 51 0.0 1.0 0.01 0.22 0.01 86 1010.3
20260903095530 52 51 0.0 2.0 0.00 0.21 0.00 86 1010.4
20260903095029 52 51 0.0 2.0 0.00 0.21 0.00 86 1010.4
20260903094529 52 51 0.0 2.0 0.00 0.21 0.00 86 1010.3
20260903094029 52 51 0.0 1.0 0.00 0.21 0.00 86 1010.3
20260903093531 52 51 0.0 1.0 0.00 0.21 0.00 86 1010.3
20260903093034 52 51 0.0 1.0 0.00 0.21 0.00 86 1010.3
20260903092528 52 51 0.0 2.0 0.00 0.21 0.00 86 1010.3
20260903092029 52 51 0.0 3.0 0.00 0.21 0.00 86 1010.3
20260903091530 52 51 1.0 3.0 0.00 0.21 0.00 86 1010.3
20260903091028 52 51 0.0 2.0 0.00 0.21 0.00 86 1010.3
20260903090527 52 51 0.0 3.0 0.00 0.21 0.00 86 1010.3
20260903090028 52 51 1.0 3.0 0.00 0.21 0.00 86 1010.3
20260903085526 52 51 0.0 3.0 0.00 0.21 0.00 86 1010.3
20260903085026 52 51 0.0 3.0 0.00 0.21 0.00 86 1010.2
20260903084527 52 51 0.0 1.0 0.00 0.21 0.00 86 1010.2
20260903084027 52 51 0.0 4.0 0.00 0.21 0.00 86 1010.2
20260903083526 52 51 1.0 4.0 0.00 0.21 0.00 86 1010.2
20260903083034 52 7 0.0 2.0 0.00 0.21 0.00 85 1010.2
20260903082525 52 7 0.0 2.0 0.00 0.21 0.00 85 1010.2
20260903082025 52 7 0.0 2.0 0.00 0.21 0.00 85 1010.2
20260903081525 52 7 0.0 2.0 0.00 0.21 0.00 85 1010.1
20260903081025 52 6 0.0 2.0 0.00 0.21 0.00 85 1010.0
20260903080527 52 6 0.0 3.0 0.00 0.21 0.00 85 1010.1
20260903080027 52 6 1.0 3.0 0.00 0.21 0.00 85 1010.1
20260903075524 52 6 0.0 4.0 0.00 0.21 0.00 85 1010.1
20260903075022 52 10 0.0 4.0 0.00 0.21 0.00 85 1010.0
20260903074522 53 186 0.0 3.0 0.00 0.21 0.00 85 1009.9
20260903074021 52 196 1.0 3.0 0.00 0.21 0.00 85 1009.8
20260903073520 52 333 0.0 6.0 0.00 0.21 0.00 85 1009.8
20260903073032 52 333 1.0 6.0 0.00 0.21 0.00 85 1009.7
20260903072521 52 58 1.0 2.0 0.00 0.21 0.00 85 1009.5
20260903072018 52 58 1.0 2.0 0.00 0.21 0.00 85 1009.6
20260903071518 52 58 0.0 4.0 0.00 0.21 0.00 85 1009.6
20260903071016 53 58 0.0 4.0 0.00 0.21 0.00 84 1009.6
20260903070515 53 342 1.0 4.0 0.00 0.21 0.00 85 1009.7
20260903070014 53 210 0.0 2.0 0.00 0.21 0.21 84 1009.7
20260903065515 53 206 0.0 5.0 0.00 0.21 0.21 84 1009.6
20260903065013 53 211 1.0 5.0 0.00 0.21 0.21 84 1009.6
20260903064518 53 268 0.0 8.0 0.00 0.21 0.21 83 1009.6
20260903064016 54 267 2.0 8.0 0.00 0.21 0.21 83 1009.6
20260903063513 54 238 0.0 7.0 0.00 0.21 0.21 84 1009.6
20260903063012 54 256 4.0 8.0 0.00 0.21 0.21 84 1009.6
20260903062511 54 255 0.0 4.0 0.00 0.21 0.21 84 1009.7
20260903062010 54 255 1.0 4.0 0.00 0.21 0.21 84 1009.7
20260903061513 54 255 0.0 3.0 0.00 0.21 0.21 84 1009.7
20260903061009 54 255 0.0 3.0 0.00 0.21 0.21 83 1009.7
20260903060509 55 255 0.0 4.0 0.00 0.21 0.21 83 1009.6
20260903060014 55 255 0.0 4.0 0.00 0.21 0.21 84 1009.7
20260903055509 55 255 1.0 7.0 0.00 0.21 0.21 84 1009.7
20260903055008 55 259 2.0 7.0 0.00 0.21 0.21 85 1009.7
20260903054509 55 273 0.0 4.0 0.00 0.21 0.21 85 1009.7
20260903054011 55 349 0.0 2.0 0.00 0.21 0.21 85 1009.6
20260903053508 54 349 0.0 3.0 0.00 0.21 0.21 85 1009.6
20260903053008 54 349 0.0 3.0 0.00 0.21 0.21 85 1009.5
20260903052509 55 349 0.0 2.0 0.00 0.21 0.21 84 1009.5
20260903052008 55 349 0.0 3.0 0.00 0.21 0.21 84 1009.4
20260903051507 55 349 0.0 3.0 0.00 0.21 0.21 84 1009.4
20260903051010 55 302 0.0 3.0 0.00 0.21 0.21 84 1009.4
20260903050509 55 302 0.0 5.0 0.00 0.21 0.21 84 1009.4
20260903050007 55 277 0.0 5.0 0.00 0.21 0.21 84 1009.3
20260903045507 55 349 0.0 6.0 0.00 0.21 0.21 84 1009.3
20260903045006 55 343 1.0 5.0 0.00 0.21 0.21 84 1009.2
20260903044508 55 348 0.0 5.0 0.00 0.21 0.21 84 1009.2
20260903044006 55 191 1.0 5.0 0.00 0.21 0.21 84 1009.2
20260903043505 55 254 0.0 5.0 0.00 0.21 0.21 84 1009.2
20260903043006 55 249 0.0 3.0 0.00 0.21 0.21 84 1009.2
20260903042506 55 248 0.0 5.0 0.00 0.21 0.21 84 1009.1
20260903042006 55 248 1.0 8.0 0.00 0.21 0.21 84 1008.9
20260903041506 55 251 2.0 8.0 0.00 0.21 0.21 84 1008.8
20260903041005 54 266 0.0 2.0 0.00 0.21 0.21 84 1008.6
20260903040505 55 266 0.0 7.0 0.00 0.21 0.21 84 1008.6
20260903040008 54 191 0.0 7.0 0.00 0.21 0.21 83 1008.5
20260903035504 55 269 0.0 4.0 0.00 0.21 0.21 83 1008.5
20260903035004 55 315 0.0 4.0 0.00 0.21 0.21 83 1008.4
20260903034503 55 250 0.0 4.0 0.00 0.21 0.21 84 1008.3
20260903034002 55 360 0.0 6.0 0.00 0.21 0.21 84 1008.4
20260903033503 55 360 1.0 6.0 0.00 0.21 0.21 84 1008.3
20260903033002 55 350 1.0 8.0 0.00 0.21 0.21 84 1008.3
20260903032502 55 28 1.0 8.0 0.00 0.21 0.21 84 1008.3
20260903032001 56 350 1.0 9.0 0.00 0.21 0.21 84 1008.2
20260903031501 56 337 2.0 9.0 0.00 0.21 0.21 84 1008.2
20260903031000 56 191 0.0 5.0 0.01 0.21 0.21 84 1008.2
20260903030602 56 242 0.0 4.0 0.01 0.21 0.21 84 1008.0
20260903030502 56 4 0.0 4.0 0.01 0.21 0.21 84 1008.0
20260903030101 56 344 0.0 5.0 0.02 0.21 0.21 84 1007.9
20260903025601 56 320 1.0 5.0 0.03 0.21 0.21 84 1007.9
20260903025059 56 22 0.0 5.0 0.06 0.21 0.21 85 1007.9
20260903024558 56 335 0.0 5.0 0.06 0.21 0.21 85 1008.0
20260903024058 56 271 0.0 8.0 0.06 0.21 0.21 85 1008.0
20260903023557 57 260 0.0 7.0 0.07 0.21 0.21 85 1007.9
20260903023120 57 191 0.0 7.0 0.07 0.21 0.21 85 1007.8
20260903022557 57 252 1.0 5.0 0.07 0.21 0.21 85 1007.9
20260903022100 57 250 0.0 4.0 0.07 0.21 0.21 85 1007.8
20260903021557 57 246 0.0 4.0 0.07 0.21 0.21 85 1007.8
20260903021056 57 262 2.0 7.0 0.06 0.20 0.20 85 1007.8
20260903020556 57 191 1.0 4.0 0.06 0.20 0.20 85 1007.7
20260903020058 58 55 0.0 4.0 0.05 0.19 0.19 85 1007.6
20260903015556 58 53 1.0 3.0 0.04 0.18 0.18 85 1007.5
20260903015055 57 359 0.0 3.0 0.02 0.15 0.15 85 1007.7
20260903014601 58 359 1.0 3.0 0.02 0.15 0.15 85 1007.5
20260903014055 58 359 0.0 1.0 0.02 0.15 0.15 85 1007.4
20260903013556 58 359 0.0 1.0 0.01 0.14 0.14 85 1007.4
20260903013055 58 359 0.0 1.0 0.01 0.14 0.14 85 1007.3
20260903012558 58 359 0.0 3.0 0.02 0.14 0.14 85 1007.3
20260903012054 57 359 0.0 3.0 0.02 0.14 0.14 84 1007.3
20260903011602 58 359 0.0 0.0 0.03 0.14 0.14 85 1007.3
20260903011055 58 359 0.0 1.0 0.04 0.14 0.14 85 1007.2
20260903010554 58 359 0.0 0.0 0.04 0.14 0.14 85 1007.1
20260903010054 58 359 0.0 1.0 0.04 0.14 0.14 85 1007.2
20260903005554 58 359 0.0 1.0 0.05 0.14 0.14 84 1007.3
20260903005053 57 359 0.0 1.0 0.04 0.13 0.13 84 1007.4
20260903004555 58 359 0.0 0.0 0.04 0.13 0.13 83 1007.4
20260903004053 58 359 0.0 0.0 0.05 0.13 0.13 83 1007.5
20260903003553 58 359 0.0 0.0 0.05 0.13 0.13 83 1007.5
20260903003053 58 359 0.0 1.0 0.05 0.13 0.13 83 1007.5
20260903002553 58 359 0.0 1.0 0.04 0.12 0.12 83 1007.4
20260903002053 58 359 0.0 1.0 0.04 0.12 0.12 83 1007.5
20260903001553 58 359 0.0 1.0 0.03 0.11 0.11 83 1007.5
20260903001052 58 359 0.0 4.0 0.02 0.10 0.10 82 1007.4
20260903000552 58 359 1.0 4.0 0.02 0.10 0.10 82 1007.5
20260903000052 59 1 0.0 2.0 0.01 0.09 0.09 82 1007.3
20260902235552 59 1 0.0 2.0 0.01 0.09 0.09 81 1007.3
20260902235051 59 1 0.0 1.0 0.01 0.09 0.09 81 1007.3
20260902234603 59 1 0.0 1.0 0.01 0.09 0.09 81 1007.3
20260902234051 60 1 0.0 1.0 0.00 0.08 0.08 83 1007.3
20260902233552 59 1 0.0 1.0 0.00 0.08 0.08 80 1007.3
20260902233051 59 1 0.0 1.0 0.00 0.08 0.08 81 1007.3
20260902232552 60 1 0.0 1.0 0.01 0.08 0.08 82 1007.4
20260902232050 60 360 0.0 3.0 0.01 0.08 0.08 83 1007.5
20260902231551 59 360 0.0 3.0 0.01 0.08 0.08 81 1007.5
20260902231051 60 360 0.0 1.0 0.01 0.08 0.08 82 1007.5
20260902230550 59 360 0.0 2.0 0.01 0.08 0.08 84 1007.6
20260902230050 59 360 0.0 2.0 0.01 0.08 0.08 84 1007.6
20260902225550 58 360 0.0 2.0 0.02 0.08 0.08 83 1007.6
20260902225050 58 360 0.0 2.0 0.02 0.08 0.08 84 1007.6
20260902224549 59 360 0.0 1.0 0.02 0.08 0.08 84 1007.5
20260902224049 58 360 0.0 1.0 0.02 0.08 0.08 84 1007.5
20260902223549 58 360 0.0 0.0 0.02 0.08 0.08 83 1007.5
20260902223053 58 360 0.0 0.0 0.03 0.08 0.08 83 1007.5
20260902222547 58 360 0.0 1.0 0.02 0.07 0.07 83 1007.5
20260902222048 58 360 0.0 3.0 0.03 0.07 0.07 83 1007.6
20260902221550 58 360 0.0 3.0 0.03 0.07 0.07 83 1007.5
20260902221051 59 6 0.0 1.0 0.03 0.07 0.07 83 1007.4
20260902220548 59 6 0.0 3.0 0.03 0.07 0.07 83 1007.4
20260902220048 58 356 0.0 4.0 0.04 0.07 0.07 83 1007.3
20260902215548 58 344 0.0 3.0 0.03 0.06 0.06 82 1007.2
20260902215047 58 345 0.0 4.0 0.03 0.06 0.06 82 1007.1
20260902214547 58 344 0.0 5.0 0.03 0.06 0.06 82 1007.0